STARLINK-34316 (64707 NORAD) Tracking and Keplerian Element Data

This shows tracking and keplerian element data for the satellite.

Feedback or suggestion? Click here.




ElementValue
Catalog64707
NameSTARLINK-34316
Epoch Orbit2763
Epoch Day353.45618622
Epoch Year2025
RAAN156.7093
Inclination70.0006
Eccentricity0.0002694
Argument of Perigee272.1852
Mean Anonmoly87.8998
Mean Motion14.98333805
Decay Rate1.802E-05
L11 64707U 25142M 25353.45618622 .00001802 00000+0 15880-3 0 9995
L22 64707 70.0006 156.7093 0002694 272.1852 87.8998 14.98333805 27639



Live tracking and technical data element details for STARLINK-34316 (NORAD 64707). STARLINK-34316 can be tracked NOW for your location showing map with azimuth and elevation plus other details from your city location.







IsCatalogInMostPopularTable: catalog: 64707, numindb: 9
Update: records affected: 1



GetName: 64707 STARLINK-34316

Hit Count: updated at: Tue, 21 Apr 2026 19:06:49 GMT